Year,Month,Day,Hour,Minute,Value (Times are PST for windspeed in km/hr)
2010,11,22,00,00,2.50
2010,11,22,00,01,0.40
2010,11,22,00,02,1.90
2010,11,22,00,03,3.60
2010,11,22,00,04,6.00
2010,11,22,00,05,5.90
2010,11,22,00,06,1.50
2010,11,22,00,07,0.80
2010,11,22,00,08,4.30
2010,11,22,00,09,5.30
2010,11,22,00,10,2.60
2010,11,22,00,11,4.20
2010,11,22,00,12,2.30
2010,11,22,00,13,1.30
2010,11,22,00,14,4.60
2010,11,22,00,15,1.00
2010,11,22,00,16,2.10
2010,11,22,00,17,7.10
2010,11,22,00,18,8.40
2010,11,22,00,19,6.70
2010,11,22,00,20,3.60
2010,11,22,00,21,3.00
2010,11,22,00,22,2.70
2010,11,22,00,23,4.30
2010,11,22,00,24,2.60
2010,11,22,00,25,6.40
2010,11,22,00,26,5.80
2010,11,22,00,27,6.90
2010,11,22,00,28,4.90
2010,11,22,00,29,4.30
2010,11,22,00,30,5.70
2010,11,22,00,31,5.70
2010,11,22,00,32,1.80
2010,11,22,00,33,0.10
2010,11,22,00,34,0.00
2010,11,22,00,35,1.90
2010,11,22,00,36,0.50
2010,11,22,00,37,4.40
2010,11,22,00,38,5.20
2010,11,22,00,39,4.30
2010,11,22,00,40,1.80
2010,11,22,00,41,2.70
2010,11,22,00,42,1.10
2010,11,22,00,43,5.00
2010,11,22,00,44,5.40
2010,11,22,00,45,0.50
2010,11,22,00,46,0.20
2010,11,22,00,47,0.10
2010,11,22,00,48,0.50
2010,11,22,00,49,1.80
2010,11,22,00,50,0.00
2010,11,22,00,51,1.70
2010,11,22,00,52,5.20
2010,11,22,00,53,8.20
2010,11,22,00,54,4.60
2010,11,22,00,55,0.60
2010,11,22,00,56,1.10
2010,11,22,00,57,4.60
2010,11,22,00,58,4.10
2010,11,22,00,59,3.50
2010,11,22,01,00,3.10
2010,11,22,01,01,2.00
2010,11,22,01,02,0.30
2010,11,22,01,03,1.90
2010,11,22,01,04,0.40
2010,11,22,01,05,0.90
2010,11,22,01,06,1.30
2010,11,22,01,07,0.00
2010,11,22,01,08,0.00
2010,11,22,01,09,0.00
2010,11,22,01,10,0.40
2010,11,22,01,11,1.10
2010,11,22,01,12,1.30
2010,11,22,01,13,4.40
2010,11,22,01,14,4.10
2010,11,22,01,15,1.20
2010,11,22,01,16,0.80
2010,11,22,01,17,1.40
2010,11,22,01,18,0.00
2010,11,22,01,19,1.30
2010,11,22,01,20,1.80
2010,11,22,01,21,0.60
2010,11,22,01,22,2.80
2010,11,22,01,23,1.00
2010,11,22,01,24,0.00
2010,11,22,01,25,0.20
2010,11,22,01,26,1.40
2010,11,22,01,27,1.00
2010,11,22,01,28,0.60
2010,11,22,01,29,0.00
2010,11,22,01,30,0.00
2010,11,22,01,31,1.20
2010,11,22,01,32,0.10
2010,11,22,01,33,0.00
2010,11,22,01,34,0.00
2010,11,22,01,35,0.70
2010,11,22,01,36,0.20
2010,11,22,01,37,2.20
2010,11,22,01,38,0.50
2010,11,22,01,39,1.40
2010,11,22,01,40,2.50
2010,11,22,01,41,2.80
2010,11,22,01,42,0.60
2010,11,22,01,43,3.30
2010,11,22,01,44,0.40
2010,11,22,01,45,1.70
2010,11,22,01,46,1.40
2010,11,22,01,47,7.40
2010,11,22,01,48,3.80
2010,11,22,01,49,1.30
2010,11,22,01,50,0.20
2010,11,22,01,51,0.30
2010,11,22,01,52,1.30
2010,11,22,01,53,3.50
2010,11,22,01,54,4.10
2010,11,22,01,55,5.60
2010,11,22,01,56,4.00
2010,11,22,01,57,2.00
2010,11,22,01,58,3.20
2010,11,22,01,59,5.90
2010,11,22,02,00,3.40
2010,11,22,02,01,2.00
2010,11,22,02,02,1.10
2010,11,22,02,03,2.50
2010,11,22,02,04,0.70
2010,11,22,02,05,0.10
2010,11,22,02,06,0.20
2010,11,22,02,07,0.40
2010,11,22,02,08,0.10
2010,11,22,02,09,0.10
2010,11,22,02,10,2.60
2010,11,22,02,11,1.40
2010,11,22,02,12,1.80
2010,11,22,02,13,7.40
2010,11,22,02,14,7.50
2010,11,22,02,15,3.10
2010,11,22,02,16,0.70
2010,11,22,02,17,1.60
2010,11,22,02,18,0.90
2010,11,22,02,19,1.90
2010,11,22,02,20,1.90
2010,11,22,02,21,0.60
2010,11,22,02,22,1.50
2010,11,22,02,23,0.60
2010,11,22,02,24,0.00
2010,11,22,02,25,5.50
2010,11,22,02,26,2.00
2010,11,22,02,27,2.90
2010,11,22,02,28,3.50
2010,11,22,02,29,2.40
2010,11,22,02,30,4.30
2010,11,22,02,31,7.20
2010,11,22,02,32,4.30
2010,11,22,02,33,4.50
2010,11,22,02,34,5.30
2010,11,22,02,35,7.30
2010,11,22,02,36,3.70
2010,11,22,02,37,3.80
2010,11,22,02,38,5.10
2010,11,22,02,39,7.10
2010,11,22,02,40,6.70
2010,11,22,02,41,6.40
2010,11,22,02,42,4.90
2010,11,22,02,43,4.60
2010,11,22,02,44,4.30
2010,11,22,02,45,5.20
2010,11,22,02,46,2.80
2010,11,22,02,47,2.30
2010,11,22,02,48,3.30
2010,11,22,02,49,3.20
2010,11,22,02,50,5.20
2010,11,22,02,51,3.10
2010,11,22,02,52,7.20
2010,11,22,02,53,2.50
2010,11,22,02,54,0.80
2010,11,22,02,55,3.10
2010,11,22,02,56,0.00
2010,11,22,02,57,3.80
2010,11,22,02,58,3.80
2010,11,22,02,59,2.10
2010,11,22,03,00,1.40
2010,11,22,03,01,1.40
2010,11,22,03,02,4.30
2010,11,22,03,03,3.80
2010,11,22,03,04,3.90
2010,11,22,03,05,3.00
2010,11,22,03,06,2.40
2010,11,22,03,07,1.10
2010,11,22,03,08,5.40
2010,11,22,03,09,6.60
2010,11,22,03,10,3.40
2010,11,22,03,11,5.20
2010,11,22,03,12,3.90
2010,11,22,03,13,3.80
2010,11,22,03,14,5.30
2010,11,22,03,15,6.10
2010,11,22,03,16,9.70
2010,11,22,03,17,6.40
2010,11,22,03,18,5.40
2010,11,22,03,19,4.80
2010,11,22,03,20,3.60
2010,11,22,03,21,3.10
2010,11,22,03,22,1.80
2010,11,22,03,23,3.70
2010,11,22,03,24,2.70
2010,11,22,03,25,1.30
2010,11,22,03,26,4.80
2010,11,22,03,27,7.30
2010,11,22,03,28,6.40
2010,11,22,03,29,3.50
2010,11,22,03,30,4.50
2010,11,22,03,31,7.80
2010,11,22,03,32,8.90
2010,11,22,03,33,5.20
2010,11,22,03,34,6.70
2010,11,22,03,35,7.80
2010,11,22,03,36,7.30
2010,11,22,03,37,1.40
2010,11,22,03,38,3.70
2010,11,22,03,39,6.00
2010,11,22,03,40,6.00
2010,11,22,03,41,5.80
2010,11,22,03,42,2.20
2010,11,22,03,43,2.10
2010,11,22,03,44,2.00
2010,11,22,03,45,3.60
2010,11,22,03,46,1.70
2010,11,22,03,47,2.90
2010,11,22,03,48,1.70
2010,11,22,03,49,4.60
2010,11,22,03,50,3.40
2010,11,22,03,51,1.60
2010,11,22,03,52,6.00
2010,11,22,03,53,7.80
2010,11,22,03,54,10.70
2010,11,22,03,55,11.50
2010,11,22,03,56,9.50
2010,11,22,03,57,4.70
2010,11,22,03,58,9.20
2010,11,22,03,59,6.30
2010,11,22,04,00,6.70
2010,11,22,04,01,2.60
2010,11,22,04,02,6.40
2010,11,22,04,03,3.10
2010,11,22,04,04,2.50
2010,11,22,04,05,8.10
2010,11,22,04,06,9.70
2010,11,22,04,07,7.40
2010,11,22,04,08,5.90
2010,11,22,04,09,2.90
2010,11,22,04,10,2.00
2010,11,22,04,11,2.30
2010,11,22,04,12,4.00
2010,11,22,04,13,3.20
2010,11,22,04,14,2.70
2010,11,22,04,15,0.50
2010,11,22,04,16,7.30
2010,11,22,04,17,10.00
2010,11,22,04,18,3.30
2010,11,22,04,19,5.40
2010,11,22,04,20,6.20
2010,11,22,04,21,7.20
2010,11,22,04,22,7.40
2010,11,22,04,23,1.10
2010,11,22,04,24,1.30
2010,11,22,04,25,6.20
2010,11,22,04,26,6.70
2010,11,22,04,27,5.30
2010,11,22,04,28,4.50
2010,11,22,04,29,3.90
2010,11,22,04,30,1.70
2010,11,22,04,31,3.80
2010,11,22,04,32,10.30
2010,11,22,04,33,5.90
2010,11,22,04,34,10.50
2010,11,22,04,35,8.40
2010,11,22,04,36,4.70
2010,11,22,04,37,4.60
2010,11,22,04,38,7.60
2010,11,22,04,39,4.40
2010,11,22,04,40,11.10
2010,11,22,04,41,6.10
2010,11,22,04,42,5.90
2010,11,22,04,43,4.90
2010,11,22,04,44,7.20
2010,11,22,04,45,11.70
2010,11,22,04,46,3.40
2010,11,22,04,47,4.30
2010,11,22,04,48,2.70
2010,11,22,04,49,2.30
2010,11,22,04,50,4.50
2010,11,22,04,51,4.20
2010,11,22,04,52,6.40
2010,11,22,04,53,10.20
2010,11,22,04,54,8.60
2010,11,22,04,55,9.50
2010,11,22,04,56,7.50
2010,11,22,04,57,6.70
2010,11,22,04,58,6.60
2010,11,22,04,59,8.70
2010,11,22,05,00,6.30
2010,11,22,05,01,5.20
2010,11,22,05,02,6.00
2010,11,22,05,03,5.20
2010,11,22,05,04,3.10
2010,11,22,05,05,3.40
2010,11,22,05,06,2.30
2010,11,22,05,07,3.10
2010,11,22,05,08,3.50
2010,11,22,05,09,5.60
2010,11,22,05,10,5.90
2010,11,22,05,11,7.60
2010,11,22,05,12,3.60
2010,11,22,05,13,6.50
2010,11,22,05,14,6.10
2010,11,22,05,15,6.60
2010,11,22,05,16,9.60
2010,11,22,05,17,6.40
2010,11,22,05,18,1.00
2010,11,22,05,19,6.40
2010,11,22,05,20,3.60
2010,11,22,05,21,2.90
2010,11,22,05,22,3.20
2010,11,22,05,23,2.60
2010,11,22,05,24,0.20
2010,11,22,05,25,0.00
2010,11,22,05,26,0.40
2010,11,22,05,27,3.10
2010,11,22,05,28,3.90
2010,11,22,05,29,3.60
2010,11,22,05,30,1.50
2010,11,22,05,31,0.70
2010,11,22,05,32,0.10
2010,11,22,05,33,0.00
2010,11,22,05,34,0.20
2010,11,22,05,35,0.80
2010,11,22,05,36,2.40
2010,11,22,05,37,7.30
2010,11,22,05,38,5.30
2010,11,22,05,39,8.50
2010,11,22,05,40,3.40
2010,11,22,05,41,1.10
2010,11,22,05,42,1.80
2010,11,22,05,43,7.30
2010,11,22,05,44,3.90
2010,11,22,05,45,1.70
2010,11,22,05,46,11.60
2010,11,22,05,47,10.20
2010,11,22,05,48,4.40
2010,11,22,05,49,4.50
2010,11,22,05,50,4.90
2010,11,22,05,51,5.00
2010,11,22,05,52,4.30
2010,11,22,05,53,5.30
2010,11,22,05,54,6.70
2010,11,22,05,55,1.40
2010,11,22,05,56,0.70
2010,11,22,05,57,1.10
2010,11,22,05,58,2.40
2010,11,22,05,59,1.70
2010,11,22,06,00,5.50
2010,11,22,06,01,1.60
2010,11,22,06,02,1.90
2010,11,22,06,03,0.40
2010,11,22,06,04,1.30
2010,11,22,06,05,0.90
2010,11,22,06,06,1.20
2010,11,22,06,07,4.10
2010,11,22,06,08,2.90
2010,11,22,06,09,0.90
2010,11,22,06,10,0.60
2010,11,22,06,11,1.90
2010,11,22,06,12,3.80
2010,11,22,06,13,6.60
2010,11,22,06,14,1.90
2010,11,22,06,15,0.00
2010,11,22,06,16,4.40
2010,11,22,06,17,3.00
2010,11,22,06,18,5.30
2010,11,22,06,19,3.60
2010,11,22,06,20,4.30
2010,11,22,06,21,7.80
2010,11,22,06,22,3.60
2010,11,22,06,23,9.70
2010,11,22,06,24,3.20
2010,11,22,06,25,4.40
2010,11,22,06,26,2.10
2010,11,22,06,27,7.40
2010,11,22,06,28,5.50
2010,11,22,06,29,7.20
2010,11,22,06,30,5.70
2010,11,22,06,31,4.30
2010,11,22,06,32,7.80
2010,11,22,06,33,4.40
2010,11,22,06,34,5.60
2010,11,22,06,35,2.10
2010,11,22,06,36,7.50
2010,11,22,06,37,7.10
2010,11,22,06,38,7.80
2010,11,22,06,39,4.40
2010,11,22,06,40,4.80
2010,11,22,06,41,7.40
2010,11,22,06,42,8.30
2010,11,22,06,43,9.00
2010,11,22,06,44,5.90
2010,11,22,06,45,11.10
2010,11,22,06,46,12.10
2010,11,22,06,47,12.90
2010,11,22,06,48,13.80
2010,11,22,06,49,11.20
2010,11,22,06,50,11.00
2010,11,22,06,51,7.60
2010,11,22,06,52,8.70
2010,11,22,06,53,5.00
2010,11,22,06,54,8.70
2010,11,22,06,55,5.20
2010,11,22,06,56,5.00
2010,11,22,06,57,4.00
2010,11,22,06,58,12.00
2010,11,22,06,59,8.50
2010,11,22,07,00,12.00
2010,11,22,07,01,12.10
2010,11,22,07,02,8.30
2010,11,22,07,03,7.10
2010,11,22,07,04,6.90
2010,11,22,07,05,12.70
2010,11,22,07,06,8.80
2010,11,22,07,07,5.90
2010,11,22,07,08,13.20
2010,11,22,07,09,7.80
2010,11,22,07,10,4.30
2010,11,22,07,11,16.40
2010,11,22,07,12,7.90
2010,11,22,07,13,4.10
2010,11,22,07,14,6.20
2010,11,22,07,15,9.90
2010,11,22,07,16,13.40
2010,11,22,07,17,8.60
2010,11,22,07,18,6.20
2010,11,22,07,19,4.30
2010,11,22,07,20,6.80
2010,11,22,07,21,10.10
2010,11,22,07,22,17.20
2010,11,22,07,23,16.20
2010,11,22,07,24,8.90
2010,11,22,07,25,7.60
2010,11,22,07,26,5.50
2010,11,22,07,27,8.50
2010,11,22,07,28,12.60
2010,11,22,07,29,5.80
2010,11,22,07,30,9.50
2010,11,22,07,31,6.50
2010,11,22,07,32,7.10
2010,11,22,07,33,9.60
2010,11,22,07,34,6.80
2010,11,22,07,35,6.10
2010,11,22,07,36,6.60
2010,11,22,07,37,12.10
2010,11,22,07,38,7.20
2010,11,22,07,39,8.60
2010,11,22,07,40,5.80
2010,11,22,07,41,8.90
2010,11,22,07,42,6.80
2010,11,22,07,43,7.20
2010,11,22,07,44,10.70
2010,11,22,07,45,5.20
2010,11,22,07,46,5.10
2010,11,22,07,47,4.30
2010,11,22,07,48,5.00
2010,11,22,07,49,6.20
2010,11,22,07,50,5.20
2010,11,22,07,51,8.00
2010,11,22,07,52,8.30
2010,11,22,07,53,5.50
2010,11,22,07,54,3.60
2010,11,22,07,55,5.20
2010,11,22,07,56,4.20
2010,11,22,07,57,8.80
2010,11,22,07,58,8.70
2010,11,22,07,59,4.80
2010,11,22,08,00,8.00
2010,11,22,08,01,7.60
2010,11,22,08,02,3.60
2010,11,22,08,03,5.10
2010,11,22,08,04,3.90
2010,11,22,08,05,4.90
2010,11,22,08,06,4.30
2010,11,22,08,07,3.70
2010,11,22,08,08,3.00
2010,11,22,08,09,3.10
2010,11,22,08,10,6.40
2010,11,22,08,11,6.40
2010,11,22,08,12,2.50
2010,11,22,08,13,4.10
2010,11,22,08,14,6.40
2010,11,22,08,15,13.60
2010,11,22,08,16,9.70
2010,11,22,08,17,4.50
2010,11,22,08,18,7.20
2010,11,22,08,19,3.50
2010,11,22,08,20,5.40
2010,11,22,08,21,7.80
2010,11,22,08,22,6.30
2010,11,22,08,23,8.10
2010,11,22,08,24,3.20
2010,11,22,08,25,2.60
2010,11,22,08,26,6.00
2010,11,22,08,27,4.50
2010,11,22,08,28,12.10
2010,11,22,08,29,7.40
2010,11,22,08,30,13.10
2010,11,22,08,31,6.70
2010,11,22,08,32,12.70
2010,11,22,08,33,13.20
2010,11,22,08,34,7.80
2010,11,22,08,35,8.30
2010,11,22,08,36,5.00
2010,11,22,08,37,6.70
2010,11,22,08,38,3.80
2010,11,22,08,39,0.60
2010,11,22,08,40,5.70
2010,11,22,08,41,6.90
2010,11,22,08,42,7.30
2010,11,22,08,43,4.40
2010,11,22,08,44,8.00
2010,11,22,08,45,7.10
2010,11,22,08,46,8.10
2010,11,22,08,47,7.10
2010,11,22,08,48,9.90
2010,11,22,08,49,7.90
2010,11,22,08,50,9.40
2010,11,22,08,51,9.80
2010,11,22,08,52,6.70
2010,11,22,08,53,4.70
2010,11,22,08,54,11.00
2010,11,22,08,55,14.50
2010,11,22,08,56,8.90
2010,11,22,08,57,9.40
2010,11,22,08,58,8.00
2010,11,22,08,59,6.10
2010,11,22,09,00,9.30
2010,11,22,09,01,7.10
2010,11,22,09,02,5.90
2010,11,22,09,03,8.00
2010,11,22,09,04,8.90
2010,11,22,09,05,4.10
2010,11,22,09,06,0.40
2010,11,22,09,07,5.30
2010,11,22,09,08,6.80
2010,11,22,09,09,5.00
2010,11,22,09,10,4.20
2010,11,22,09,11,2.70
2010,11,22,09,12,6.90
2010,11,22,09,13,3.60
2010,11,22,09,14,2.90
2010,11,22,09,15,4.10
2010,11,22,09,16,5.90
2010,11,22,09,17,4.00
2010,11,22,09,18,6.90
2010,11,22,09,19,5.00
2010,11,22,09,20,7.40
2010,11,22,09,21,8.10
2010,11,22,09,22,3.80
2010,11,22,09,23,3.70
2010,11,22,09,24,5.10
2010,11,22,09,25,3.60
2010,11,22,09,26,4.20
2010,11,22,09,27,7.40
2010,11,22,09,28,6.10
2010,11,22,09,29,3.00
2010,11,22,09,30,8.00
2010,11,22,09,31,8.30
2010,11,22,09,32,3.40
2010,11,22,09,33,4.90
2010,11,22,09,34,7.50
2010,11,22,09,35,3.70
2010,11,22,09,36,6.70
2010,11,22,09,37,7.60
2010,11,22,09,38,7.20
2010,11,22,09,39,7.10
2010,11,22,09,40,8.00
2010,11,22,09,41,11.90
2010,11,22,09,42,4.80
2010,11,22,09,43,7.90
2010,11,22,09,44,5.00
2010,11,22,09,45,5.90
2010,11,22,09,46,5.10
2010,11,22,09,47,5.30
2010,11,22,09,48,7.50
2010,11,22,09,49,4.00
2010,11,22,09,50,6.60
2010,11,22,09,51,3.10
2010,11,22,09,52,1.80
2010,11,22,09,53,2.50
2010,11,22,09,54,3.40
2010,11,22,09,55,9.00
2010,11,22,09,56,6.00
2010,11,22,09,57,4.50
2010,11,22,09,58,5.20
2010,11,22,09,59,4.50
2010,11,22,10,00,9.00
2010,11,22,10,01,8.70
2010,11,22,10,02,12.50
2010,11,22,10,03,6.90
2010,11,22,10,04,3.70
2010,11,22,10,05,5.40
2010,11,22,10,06,10.60
2010,11,22,10,07,9.00
2010,11,22,10,08,5.00
2010,11,22,10,09,9.70
2010,11,22,10,10,9.40
2010,11,22,10,11,10.90
2010,11,22,10,12,10.50
2010,11,22,10,13,9.00
2010,11,22,10,14,10.80
2010,11,22,10,15,9.90
2010,11,22,10,16,7.70
2010,11,22,10,17,8.20
2010,11,22,10,18,8.20
2010,11,22,10,19,11.60
2010,11,22,10,20,7.20
2010,11,22,10,21,7.00
2010,11,22,10,22,2.50
2010,11,22,10,23,5.50
2010,11,22,10,24,6.60
2010,11,22,10,25,7.90
2010,11,22,10,26,10.70
2010,11,22,10,27,7.10
2010,11,22,10,28,7.80
2010,11,22,10,29,9.40
2010,11,22,10,30,5.40
2010,11,22,10,31,6.20
2010,11,22,10,32,7.40
2010,11,22,10,33,5.20
2010,11,22,10,34,5.10
2010,11,22,10,35,3.30
2010,11,22,10,36,7.30
2010,11,22,10,37,10.30
2010,11,22,10,38,6.40
2010,11,22,10,39,5.70
2010,11,22,10,40,5.90
2010,11,22,10,41,3.90
2010,11,22,10,42,6.00
2010,11,22,10,43,4.20
2010,11,22,10,44,8.70
2010,11,22,10,45,8.40
2010,11,22,10,46,13.30
2010,11,22,10,47,7.70
2010,11,22,10,48,5.00
2010,11,22,10,49,8.30
2010,11,22,10,50,10.30
2010,11,22,10,51,13.00
2010,11,22,10,52,7.80
2010,11,22,10,53,2.40
2010,11,22,10,54,6.40
2010,11,22,10,55,13.30
2010,11,22,10,56,6.80
2010,11,22,10,57,11.40
2010,11,22,10,58,6.30
2010,11,22,10,59,7.40
2010,11,22,11,00,12.00
2010,11,22,11,01,13.70
2010,11,22,11,02,5.10
2010,11,22,11,03,3.80
2010,11,22,11,04,6.40
2010,11,22,11,05,5.90
2010,11,22,11,06,12.40
2010,11,22,11,07,4.30
2010,11,22,11,08,10.00
2010,11,22,11,09,5.30
2010,11,22,11,10,8.80
2010,11,22,11,11,8.10
2010,11,22,11,12,10.10
2010,11,22,11,13,3.60
2010,11,22,11,14,7.20
2010,11,22,11,15,7.20
2010,11,22,11,16,5.20
2010,11,22,11,17,15.60
2010,11,22,11,18,13.50
2010,11,22,11,19,13.20
2010,11,22,11,20,12.00
2010,11,22,11,21,15.20
2010,11,22,11,22,16.90
2010,11,22,11,23,13.30
2010,11,22,11,24,9.60
2010,11,22,11,25,9.30
2010,11,22,11,26,9.00
2010,11,22,11,27,6.60
2010,11,22,11,28,12.30
2010,11,22,11,29,8.30
2010,11,22,11,30,11.70
2010,11,22,11,31,16.60
2010,11,22,11,32,19.20
2010,11,22,11,33,11.50
2010,11,22,11,34,9.40
2010,11,22,11,35,11.20
2010,11,22,11,36,12.50
2010,11,22,11,37,6.90
2010,11,22,11,38,5.40
2010,11,22,11,39,9.20
2010,11,22,11,40,7.60
2010,11,22,11,41,16.10
2010,11,22,11,42,6.80
2010,11,22,11,43,8.30
2010,11,22,11,44,16.00
2010,11,22,11,45,15.80
2010,11,22,11,46,12.00
2010,11,22,11,47,11.20
2010,11,22,11,48,12.60
2010,11,22,11,49,15.00
2010,11,22,11,50,12.20
2010,11,22,11,51,11.70
2010,11,22,11,52,14.20
2010,11,22,11,53,14.30
2010,11,22,11,54,15.20
2010,11,22,11,55,12.40
2010,11,22,11,56,17.80
2010,11,22,11,57,20.90
2010,11,22,11,58,20.90
2010,11,22,11,59,20.90
2010,11,22,12,00,20.90
2010,11,22,12,01,22.20
2010,11,22,12,02,9.70
2010,11,22,12,03,13.00
2010,11,22,12,04,11.90
2010,11,22,12,05,13.30
2010,11,22,12,06,13.60
2010,11,22,12,07,15.90
2010,11,22,12,08,18.30
2010,11,22,12,09,16.00
2010,11,22,12,10,8.40
2010,11,22,12,11,13.70
2010,11,22,12,12,16.30
2010,11,22,12,13,9.50
2010,11,22,12,14,12.30
2010,11,22,12,15,11.30
2010,11,22,12,16,13.30
2010,11,22,12,17,10.60
2010,11,22,12,18,11.80
2010,11,22,12,19,11.30
2010,11,22,12,20,5.30
2010,11,22,12,21,12.40
2010,11,22,12,22,10.20
2010,11,22,12,23,11.10
2010,11,22,12,24,11.30
2010,11,22,12,25,11.70
2010,11,22,12,26,12.30
2010,11,22,12,27,16.30
2010,11,22,12,28,10.70
2010,11,22,12,29,16.30
2010,11,22,12,30,16.00
2010,11,22,12,31,18.50
2010,11,22,12,32,15.30
2010,11,22,12,33,10.90
2010,11,22,12,34,16.90
2010,11,22,12,35,13.90
2010,11,22,12,36,15.10
2010,11,22,12,37,12.70
2010,11,22,12,38,12.20
2010,11,22,12,39,13.00
2010,11,22,12,40,18.10
2010,11,22,12,41,12.20
2010,11,22,12,42,13.60
2010,11,22,12,43,16.20
2010,11,22,12,44,16.20
2010,11,22,12,45,12.90
2010,11,22,12,46,12.70
2010,11,22,12,47,16.60
2010,11,22,12,48,13.70
2010,11,22,12,49,22.30
2010,11,22,12,50,15.00
2010,11,22,12,51,11.70
2010,11,22,12,52,17.70
2010,11,22,12,53,9.50
2010,11,22,12,54,20.60
2010,11,22,12,55,21.80
2010,11,22,12,56,13.80
2010,11,22,12,57,15.50
2010,11,22,12,58,8.70
2010,11,22,12,59,19.70
2010,11,22,13,00,16.80
2010,11,22,13,01,19.80
2010,11,22,13,02,15.70
2010,11,22,13,03,9.20
2010,11,22,13,04,17.30
2010,11,22,13,05,14.30
2010,11,22,13,06,13.80
2010,11,22,13,07,9.10
2010,11,22,13,08,13.60
2010,11,22,13,09,11.40
2010,11,22,13,10,15.30
2010,11,22,13,11,19.20
2010,11,22,13,12,13.70
2010,11,22,13,13,9.70
2010,11,22,13,14,14.80
2010,11,22,13,15,10.50
2010,11,22,13,16,10.90
2010,11,22,13,17,15.00
2010,11,22,13,18,10.50
2010,11,22,13,19,12.20
2010,11,22,13,20,8.50
2010,11,22,13,21,13.10
2010,11,22,13,22,13.30
2010,11,22,13,23,15.00
2010,11,22,13,24,16.30
2010,11,22,13,25,11.70
2010,11,22,13,26,12.50
2010,11,22,13,27,25.20
2010,11,22,13,28,16.90
2010,11,22,13,29,16.80
2010,11,22,13,30,16.70
2010,11,22,13,31,19.80
2010,11,22,13,32,18.40
2010,11,22,13,33,21.30
2010,11,22,13,34,20.80
2010,11,22,13,35,27.00
2010,11,22,13,36,16.20
2010,11,22,13,37,11.50
2010,11,22,13,38,19.60
2010,11,22,13,39,20.30
2010,11,22,13,40,26.30
2010,11,22,13,41,17.40
2010,11,22,13,42,14.80
2010,11,22,13,43,12.30
2010,11,22,13,44,13.60
2010,11,22,13,45,23.40
2010,11,22,13,46,17.80
2010,11,22,13,47,23.70
2010,11,22,13,48,14.30
2010,11,22,13,49,10.80
2010,11,22,13,50,15.90
2010,11,22,13,51,20.50
2010,11,22,13,52,13.10
2010,11,22,13,53,21.80
2010,11,22,13,54,18.50
2010,11,22,13,55,18.40
2010,11,22,13,56,21.90
2010,11,22,13,57,19.80
2010,11,22,13,58,17.40
2010,11,22,13,59,14.00
2010,11,22,14,00,17.60
2010,11,22,14,01,17.60
2010,11,22,14,02,14.80
2010,11,22,14,03,16.70
2010,11,22,14,04,18.70
2010,11,22,14,05,21.50
2010,11,22,14,06,16.90
2010,11,22,14,07,9.70
2010,11,22,14,08,12.10
2010,11,22,14,09,11.80
2010,11,22,14,10,15.00
2010,11,22,14,11,11.60
2010,11,22,14,12,15.30
2010,11,22,14,13,13.40
2010,11,22,14,14,14.60
2010,11,22,14,15,12.60
2010,11,22,14,16,8.70
2010,11,22,14,17,18.90
2010,11,22,14,18,12.90
2010,11,22,14,19,13.90
2010,11,22,14,20,11.40
2010,11,22,14,21,22.20
2010,11,22,14,22,16.40
2010,11,22,14,23,14.90
2010,11,22,14,24,16.40
2010,11,22,14,25,14.10
2010,11,22,14,26,17.20
2010,11,22,14,27,17.40
2010,11,22,14,28,16.20
2010,11,22,14,29,22.50
2010,11,22,14,30,17.10
2010,11,22,14,31,23.70
2010,11,22,14,32,22.00
2010,11,22,14,33,14.80
2010,11,22,14,34,19.20
2010,11,22,14,35,16.50
2010,11,22,14,36,14.60
2010,11,22,14,37,11.90
2010,11,22,14,38,13.50
2010,11,22,14,39,17.90
2010,11,22,14,40,17.00
2010,11,22,14,41,12.20
2010,11,22,14,42,13.10
2010,11,22,14,43,12.30
2010,11,22,14,44,14.60
2010,11,22,14,45,22.70
2010,11,22,14,46,18.10
2010,11,22,14,47,17.10
2010,11,22,14,48,17.90
2010,11,22,14,49,19.00
2010,11,22,14,50,19.20
2010,11,22,14,51,16.00
2010,11,22,14,52,18.50
2010,11,22,14,53,14.80
2010,11,22,14,54,19.00
2010,11,22,14,55,17.50
2010,11,22,14,56,17.40
2010,11,22,14,57,7.30
2010,11,22,14,58,18.20
2010,11,22,14,59,20.40
2010,11,22,15,00,23.30
2010,11,22,15,01,17.00
2010,11,22,15,02,21.30
2010,11,22,15,03,12.50
2010,11,22,15,04,17.00
2010,11,22,15,05,16.90
2010,11,22,15,06,28.10
2010,11,22,15,07,17.20
2010,11,22,15,08,24.30
2010,11,22,15,09,18.50
2010,11,22,15,10,20.50
2010,11,22,15,11,16.00
2010,11,22,15,12,16.40
2010,11,22,15,13,15.30
2010,11,22,15,14,16.90
2010,11,22,15,15,18.20
2010,11,22,15,16,16.30
2010,11,22,15,17,16.60
2010,11,22,15,18,19.50
2010,11,22,15,19,18.50
2010,11,22,15,20,19.00
2010,11,22,15,21,18.80
2010,11,22,15,22,18.00
2010,11,22,15,23,15.90
2010,11,22,15,24,18.80
2010,11,22,15,25,19.90
2010,11,22,15,26,17.10
2010,11,22,15,27,12.50
2010,11,22,15,28,8.80
2010,11,22,15,29,13.50
2010,11,22,15,30,12.90
2010,11,22,15,31,19.40
2010,11,22,15,32,23.10
2010,11,22,15,33,21.10
2010,11,22,15,34,16.90
2010,11,22,15,35,14.50
2010,11,22,15,36,13.30
2010,11,22,15,37,12.40
2010,11,22,15,38,16.90
2010,11,22,15,39,13.00
2010,11,22,15,40,14.60
2010,11,22,15,41,13.90
2010,11,22,15,42,18.90
2010,11,22,15,43,10.60
2010,11,22,15,44,12.40
2010,11,22,15,45,8.60
2010,11,22,15,46,18.00
2010,11,22,15,47,21.60
2010,11,22,15,48,18.40
2010,11,22,15,49,23.60
2010,11,22,15,50,15.30
2010,11,22,15,51,21.10
2010,11,22,15,52,22.30
2010,11,22,15,53,15.80
2010,11,22,15,54,18.90
2010,11,22,15,55,19.40
2010,11,22,15,56,17.80
2010,11,22,15,57,12.50
2010,11,22,15,58,12.90
2010,11,22,15,59,13.10
2010,11,22,16,00,11.00
2010,11,22,16,01,8.00
2010,11,22,16,02,16.20
2010,11,22,16,03,13.70
2010,11,22,16,04,12.80
2010,11,22,16,05,20.40
2010,11,22,16,06,10.60
2010,11,22,16,07,10.40
2010,11,22,16,08,20.80
2010,11,22,16,09,19.70
2010,11,22,16,10,16.10
2010,11,22,16,11,14.00
2010,11,22,16,12,14.20
2010,11,22,16,13,10.60
2010,11,22,16,14,10.60
2010,11,22,16,15,13.30
2010,11,22,16,16,10.80
2010,11,22,16,17,12.20
2010,11,22,16,18,5.80
2010,11,22,16,19,9.90
2010,11,22,16,20,5.40
2010,11,22,16,21,14.50
2010,11,22,16,22,5.20
2010,11,22,16,23,5.20
2010,11,22,16,24,8.60
2010,11,22,16,25,6.70
2010,11,22,16,26,9.40
2010,11,22,16,27,7.70
2010,11,22,16,28,5.70
2010,11,22,16,29,12.30
2010,11,22,16,30,4.90
2010,11,22,16,31,5.50
2010,11,22,16,32,7.60
2010,11,22,16,33,13.70
2010,11,22,16,34,5.80
2010,11,22,16,35,10.10
2010,11,22,16,36,12.50
2010,11,22,16,37,7.00
2010,11,22,16,38,18.70
2010,11,22,16,39,10.80
2010,11,22,16,40,18.80
2010,11,22,16,41,21.30
2010,11,22,16,42,12.30
2010,11,22,16,43,15.70
2010,11,22,16,44,8.60
2010,11,22,16,45,9.70
2010,11,22,16,46,6.20
2010,11,22,16,47,6.00
2010,11,22,16,48,12.20
2010,11,22,16,49,7.10
2010,11,22,16,50,15.90
2010,11,22,16,51,14.20
2010,11,22,16,52,20.00
2010,11,22,16,53,12.70
2010,11,22,16,54,5.10
2010,11,22,16,55,10.80
2010,11,22,16,56,19.70
2010,11,22,16,57,13.60
2010,11,22,16,58,9.00
2010,11,22,16,59,9.70
2010,11,22,17,00,13.80
2010,11,22,17,01,9.70
2010,11,22,17,02,7.90
2010,11,22,17,03,7.70
2010,11,22,17,04,16.60
2010,11,22,17,05,6.70
2010,11,22,17,06,14.30
2010,11,22,17,07,15.30
2010,11,22,17,08,12.80
2010,11,22,17,09,15.70
2010,11,22,17,10,12.90
2010,11,22,17,11,16.90
2010,11,22,17,12,12.60
2010,11,22,17,13,12.90
2010,11,22,17,14,6.40
2010,11,22,17,15,10.10
2010,11,22,17,16,24.30
2010,11,22,17,17,21.00
2010,11,22,17,18,12.20
2010,11,22,17,19,18.50
2010,11,22,17,20,20.80
2010,11,22,17,21,15.60
2010,11,22,17,22,13.70
2010,11,22,17,23,14.50
2010,11,22,17,24,13.00
2010,11,22,17,25,15.90
2010,11,22,17,26,21.10
2010,11,22,17,27,18.80
2010,11,22,17,28,16.70
2010,11,22,17,29,12.30
2010,11,22,17,30,9.00
2010,11,22,17,31,16.00
2010,11,22,17,32,17.90
2010,11,22,17,33,12.20
2010,11,22,20,41,14.10
2010,11,22,20,42,10.10
2010,11,22,20,43,14.90
2010,11,22,20,44,11.10
2010,11,22,20,45,16.60
2010,11,22,20,46,11.00
2010,11,22,20,47,12.30
2010,11,22,20,48,17.70
2010,11,22,20,49,11.20
2010,11,22,20,50,7.30
2010,11,22,20,51,7.60
2010,11,22,20,52,9.50
2010,11,22,20,53,15.90
2010,11,22,20,54,11.00
2010,11,22,20,55,15.70
2010,11,22,20,56,11.30